Find Local Weather

World > North America > United States > New York

Colden, New York Regional Weather

Lat: 42.64N, Lon: 78.69W
Wx Zone: NYZ085
Feedback
Expires:201812121000;;670439
ASUS41 KALY 120910
RWRALY

NEW YORK STATE HOURLY WEATHER ROUNDUP
NATIONAL WEATHER SERVICE ALBANY NY
400 AM EST WED DEC 12 2018

NOTE: "FAIR" INDICATES FEW OR NO CLOUDS BELOW 12,000 FEET WITH NO
SIGNIFICANT WEATHER AND/OR NO OBSTRUCTIONS TO VISIBILITY.


NYZ001>004-010>016-019>021-085-121000-
WEST

  
CITY           SKY/WX    TMP DP  RH WIND       PRES   REMARKS
NIAGARA FALLS  MOCLDY    28  24  85 W7        30.06R WCI  21          
BUFFALO        CLOUDY    28  25  88 SW6       30.06R WCI  22          
DUNKIRK        CLOUDY    33  28  81 SW3       30.08S                  
JAMESTOWN      CLOUDY    27  25  92 SW7       30.04S FOG     WCI  19  
WELLSVILLE     CLOUDY    26  24  92 MISG      30.00S                  
ROCHESTER      CLOUDY    31  29  92 W6        30.05R WCI  25          
PENN YAN       CLOUDY    31  26  82 W8        30.02S WCI  23          
$$

             KEY
       WCI = WIND CHILL INDEX
       VSB = VISIBILITY
       HX  = HEAT INDEX
$$
  

SKY/WX - Weather  TMP - Temperature  DP - Dew Point  RH - Relative Humidity
WIND - Wind Direction/Speed PRES - Barometric Pressure